Window Rock, AZ

7:31 PM MST on November 19, 2017 (GMT -0700)
Window Rock

Weather History for KRQE - March, 2014

Change the Weather History Date:

Monday, March 3, 2014

  Actual Average Record
Temperature  
Mean Temperature 44 °F -  
Max Temperature 57 °F 48 °F 69 °F (2016)
Min Temperature 30 °F 23 °F -6 °F (2002)
Degree Days  
Heating Degree Days 22    
Moisture  
Dew Point 27 °F    
Average Humidity 64    
Maximum Humidity 88    
Minimum Humidity 30    
Precipitation  
Precipitation 0.00 in - - ()
Sea Level Pressure  
Sea Level Pressure 30.03 in    
Wind  
Wind Speed 2 mph (NNW)    
Max Wind Speed 8 mph    
Max Gust Speed -    
Visibility 10 miles    
Events      
Averages and records for this station are not official NWS values.
T = Trace of Precipitation, MM = Missing Value Source: NWS Daily Summary

Daily Weather History Graph

Daily Weather History Graph

Search for Another Location

Airport or City:

Trip Planner

Search our weather history database for the weather conditions in past years. The results will help you decide how hot, cold, wet, or windy it might be!

Date:

Astronomy

Mar. 03, 2014 Rise Set
Actual Time 6:43 AM MST 6:13 PM MST
Civil Twilight 6:17 AM MST 6:38 PM MST
Nautical Twilight 5:48 AM MST 7:08 PM MST
Astronomical Twilight 5:18 AM MST 7:38 PM MST
Moon 8:00 AM MST (3/3) 9:12 PM MST (3/3)
Length of Visible Light 12h 21m
Length of Day
11h 29m
Waxing Crescent, 8% of the Moon is Illuminated
Mar 3
Waxing Crescent
Mar 8
First Quarter
Mar 16
Full
Mar 23
Last Quarter
Mar 30
New

Hourly Weather History & Observations

Time (MST) Temp. Windchill Dew Point Humidity Pressure Visibility Wind Dir Wind Speed Gust Speed Precip Events Conditions
12:53 AM 32.0 °F - 28.9 °F 88% 30.09 in 10.0 mi Calm Calm - N/A   Clear
1:53 AM 33.1 °F 30.0 °F 28.9 °F 85% 30.06 in 10.0 mi ENE 3.5 mph - N/A   Clear
2:53 AM 32.0 °F - 28.0 °F 85% 30.05 in 10.0 mi Calm Calm - N/A   Clear
3:53 AM 30.9 °F - 27.0 °F 85% 30.05 in 10.0 mi Calm Calm - N/A   Clear
4:53 AM 30.0 °F 26.5 °F 27.0 °F 88% 30.07 in 10.0 mi SW 3.5 mph - N/A   Clear
5:53 AM 32.0 °F - 28.0 °F 85% 30.07 in 10.0 mi Calm Calm - N/A   Scattered Clouds
6:53 AM 32.0 °F - 28.0 °F 85% 30.09 in 10.0 mi Calm Calm - N/A   Scattered Clouds
7:53 AM 33.1 °F - 28.9 °F 85% 30.11 in 10.0 mi Calm Calm - N/A   Mostly Cloudy
8:53 AM 37.0 °F 32.4 °F 30.0 °F 76% 30.09 in 10.0 mi North 5.8 mph - N/A   Mostly Cloudy
9:53 AM 43.0 °F 41.3 °F 33.1 °F 68% 30.08 in 10.0 mi North 3.5 mph - N/A   Clear
10:53 AM 48.0 °F - 30.0 °F 50% 30.04 in 10.0 mi Variable 3.5 mph - N/A   Clear
11:53 AM 51.1 °F - 26.1 °F 38% 30.01 in 10.0 mi Variable 5.8 mph - N/A   Clear
12:53 PM 55.0 °F - 27.0 °F 34% 29.98 in 10.0 mi Calm Calm - N/A   Partly Cloudy
1:53 PM 54.0 °F - 25.0 °F 33% 29.96 in 10.0 mi Calm Calm - N/A   Partly Cloudy
2:53 PM 53.1 °F - 26.1 °F 35% 29.97 in 10.0 mi WSW 8.1 mph - N/A   Partly Cloudy
3:53 PM 55.0 °F - 24.1 °F 30% 29.95 in 10.0 mi SSW 5.8 mph - N/A   Mostly Cloudy
4:53 PM 57.0 °F - 26.1 °F 30% 29.94 in 10.0 mi NNW 6.9 mph - N/A   Overcast
5:53 PM 53.1 °F - 23.0 °F 31% 29.96 in 10.0 mi NW 5.8 mph - N/A   Scattered Clouds
6:53 PM 46.0 °F 44.8 °F 25.0 °F 44% 30.00 in 10.0 mi NE 3.5 mph - N/A   Clear
7:53 PM 41.0 °F - 28.9 °F 62% 30.04 in 10.0 mi Calm Calm - N/A   Clear
8:53 PM 36.0 °F - 28.0 °F 73% 30.06 in 10.0 mi Calm Calm - N/A   Clear
9:53 PM 34.0 °F - 28.0 °F 79% 30.04 in 10.0 mi Calm Calm - N/A   Clear
10:53 PM 32.0 °F - 27.0 °F 82% 30.02 in 10.0 mi Calm Calm - N/A   Clear
11:53 PM 30.0 °F - 26.1 °F 85% 30.01 in 10.0 mi Calm Calm - N/A   Clear